Theta_e
332 331 329 329 328 330 331 329 325 322 319 315 313 312 311 312 312 310 309 310 310 314 322 329 328 327 330 331 332 331 329 327 328 330 331 331 334 335 335 335 335 333 331 328 318 310 309 309 310 311 316 322 323 324 324 325 324 320 319 325 327 328 331 331 330 329 329 329 328 329 330 333 334 333 332 330 327 322 316 313 312 315 321 324 326
332 331 329 328 328 330 331 328 325 321 318 314 312 311 310 311 310 310 312 313 314 318 323 326 325 325 328 331 332 331 331 329 327 330 331 331 333 334 334 334 333 331 329 325 315 310 310 310 310 311 314 317 319 322 322 321 320 318 318 322 324 325 326 326 324 323 323 325 327 327 328 331 332 331 328 324 319 314 312 311 311 314 317 318 319
331 330 329 330 331 330 328 327 325 321 318 314 312 311 310 310 310 312 315 318 321 324 327 329 328 329 330 332 333 332 331 329 327 327 328 329 330 332 332 331 329 326 324 320 313 309 310 310 311 311 313 314 316 320 320 318 317 318 319 320 321 322 322 321 320 319 319 323 326 326 327 329 328 327 324 321 318 315 317 316 316 317 319 320 320
330 329 330 333 334 332 328 327 324 321 319 314 312 311 310 309 309 312 317 321 324 326 328 331 331 331 332 332 333 332 330 327 326 325 326 328 328 328 327 326 323 318 318 318 314 311 311 311 311 311 312 312 314 317 317 314 315 316 316 316 317 319 318 317 316 316 318 321 322 321 323 325 323 324 323 323 322 322 325 325 325 324 324 324 325
332 332 333 334 334 332 328 326 323 321 319 316 313 311 310 309 309 311 316 322 325 326 327 329 329 330 330 330 330 328 327 325 324 324 327 329 328 326 324 321 317 315 317 321 317 311 312 313 311 311 312 312 314 314 314 314 313 313 313 314 315 315 315 314 314 314 315 316 317 316 319 322 323 323 324 325 325 325 327 328 328 327 326 326 327
333 333 334 333 333 330 329 326 323 321 320 317 313 311 311 309 309 309 314 320 323 324 324 326 326 326 326 327 327 328 326 323 321 324 328 327 325 322 320 318 315 315 320 323 320 314 313 315 313 312 312 312 314 313 313 313 312 312 313 313 314 314 314 315 314 313 314 316 319 321 323 325 326 326 327 327 326 327 328 329 329 328 327 326 326
333 334 333 332 333 331 330 327 322 322 321 319 315 312 311 310 309 308 311 316 320 322 323 324 327 326 325 325 327 329 325 319 318 322 326 325 322 320 318 316 315 317 322 324 323 319 315 316 315 312 312 312 312 312 313 312 311 312 312 313 314 315 315 315 313 313 314 317 322 325 327 328 328 328 329 328 328 329 329 329 327 326 326 324 323
333 334 333 334 333 332 330 326 322 322 322 320 317 313 311 310 310 309 309 313 315 320 323 324 328 330 329 328 328 326 321 318 318 319 323 323 321 318 315 313 314 319 323 325 325 321 314 314 314 310 311 311 311 312 312 311 311 311 311 312 314 314 314 314 315 316 317 318 322 325 327 328 328 328 329 329 330 329 327 326 324 324 324 324 319
331 333 334 334 332 332 329 326 322 322 323 322 319 315 313 311 310 310 309 310 310 313 321 323 323 325 327 328 325 321 317 316 315 315 319 319 318 315 312 313 316 321 323 325 326 322 316 314 314 314 313 311 312 312 311 310 310 310 311 312 312 313 314 315 319 320 321 322 324 325 326 327 328 328 328 329 329 326 324 323 322 324 324 322 315
329 332 333 333 332 331 328 325 323 322 323 323 321 317 314 313 311 311 309 309 309 308 317 323 319 318 320 320 320 317 313 312 312 313 313 313 314 313 314 315 318 322 323 324 325 323 323 319 316 315 313 311 312 311 311 310 310 310 310 311 312 313 314 317 319 320 322 323 324 324 324 324 324 325 326 327 326 323 322 321 321 322 323 320 314
329 332 332 332 332 330 327 325 323 323 324 324 323 319 316 314 313 312 311 310 310 308 315 321 319 316 315 314 316 314 311 311 311 309 309 310 313 316 318 317 319 323 323 325 325 325 327 321 314 313 310 311 311 311 311 310 310 311 312 312 313 314 315 316 316 317 319 320 321 319 319 319 319 320 320 322 321 320 320 318 319 320 320 317 312
330 331 330 331 331 329 327 325 323 323 324 324 323 322 318 316 315 313 312 311 311 310 314 317 314 313 314 314 315 312 311 315 313 308 308 310 314 318 319 318 320 322 321 323 324 325 326 320 314 312 310 310 311 311 311 311 311 312 313 314 315 316 316 317 317 317 318 319 318 318 320 322 323 323 321 320 319 318 319 319 320 320 317 312 309
330 330 330 329 329 328 327 325 324 324 323 324 324 323 321 318 316 315 314 312 312 311 313 315 311 310 312 311 313 312 315 321 318 311 310 308 313 318 317 318 320 321 320 320 322 323 324 319 313 310 309 310 311 312 312 312 313 314 315 316 317 317 318 318 318 318 318 318 318 320 324 326 326 326 323 322 321 319 318 319 320 317 313 309 306
328 328 329 329 329 328 327 327 325 324 323 324 324 324 323 321 318 317 315 314 313 312 311 313 311 310 310 310 313 316 320 323 319 313 312 308 311 318 317 316 317 319 320 319 320 321 319 315 310 308 309 310 312 313 313 314 315 316 317 318 318 319 319 319 318 318 319 319 320 322 325 325 326 325 324 323 321 319 317 317 316 311 308 307 307
328 328 329 329 329 328 328 328 327 325 323 323 324 324 324 323 321 320 318 315 314 313 312 312 312 311 311 310 312 316 319 319 315 313 313 309 310 317 316 313 314 316 319 318 317 319 316 310 308 308 308 310 312 313 314 316 317 318 318 319 319 320 320 319 319 320 320 321 322 323 324 325 325 325 324 322 320 316 314 312 309 307 306 307 307
329 328 329 329 329 329 328 328 327 326 325 323 323 324 325 324 323 323 322 319 315 314 313 312 312 312 311 311 310 312 313 312 311 312 311 309 310 315 314 311 312 313 317 318 317 318 314 308 307 308 309 311 312 313 316 317 318 319 319 319 320 321 321 320 320 320 320 320 320 321 322 322 323 323 323 321 318 312 309 307 306 307 308 308 307
330 329 329 329 329 329 328 328 327 326 326 324 323 324 325 325 324 324 324 322 318 315 314 314 313 312 312 311 311 310 310 309 309 310 310 309 309 313 313 310 310 310 313 316 317 315 310 306 307 310 311 312 313 314 315 317 319 319 319 320 320 321 321 320 320 320 320 319 319 319 318 319 319 320 320 319 317 310 306 307 306 307 308 308 307
330 330 330 329 329 329 328 328 327 326 327 326 324 323 325 326 326 325 325 325 322 319 318 318 317 315 313 312 312 311 311 310 308 308 309 309 308 309 309 309 309 308 310 311 313 311 307 307 309 312 313 313 313 314 315 317 318 319 320 320 321 321 321 321 320 320 320 320 319 318 317 316 316 316 315 315 313 308 306 307 307 307 307 306 306
329 329 329 329 328 328 328 328 328 327 328 327 325 323 324 326 327 326 325 326 325 323 321 321 321 319 316 314 313 312 312 311 309 307 306 308 308 307 307 308 308 308 307 307 308 307 305 308 312 313 313 313 313 314 315 316 317 319 320 320 321 321 321 321 321 320 320 319 318 315 313 312 312 312 312 310 308 306 306 307 307 307 306 305 305
330 330 329 329 328 328 328 328 328 328 328 328 327 325 323 324 326 327 327 326 326 326 324 323 323 321 319 317 315 314 313 312 311 309 306 306 306 307 307 307 307 307 306 306 307 306 306 309 313 314 314 314 313 313 314 315 317 318 320 320 320 321 322 322 321 321 320 319 317 314 313 312 312 312 310 307 306 306 307 307 307 306 305 304 304
330 330 330 330 329 329 329 329 328 328 329 329 329 327 325 324 325 327 327 327 327 327 326 325 324 323 322 320 318 315 315 314 313 312 309 306 305 306 306 306 306 306 306 306 306 305 306 311 314 314 315 315 314 314 313 314 315 316 318 319 320 322 322 322 321 321 320 319 317 315 314 313 314 313 309 306 307 307 307 307 306 306 305 304 304
330 330 330 330 330 330 330 329 329 328 329 329 330 329 328 326 325 326 327 327 327 327 327 327 326 325 324 322 320 318 317 317 315 314 312 309 308 307 306 305 305 305 305 305 305 304 306 312 315 315 315 315 315 315 314 314 315 315 316 316 318 319 320 321 321 320 319 319 317 315 315 314 314 314 312 309 308 307 307 307 306 306 305 304 304
329 329 329 329 329 330 331 331 330 329 329 329 330 330 330 329 327 326 326 327 328 328 328 327 327 326 325 324 323 320 319 318 317 316 315 313 312 311 309 306 306 305 305 304 305 304 306 312 315 315 315 315 316 316 315 315 315 315 315 315 316 315 316 319 320 320 320 319 317 316 316 317 316 315 314 313 310 307 307 307 307 306 306 305 304
329 329 329 329 329 330 331 331 331 330 330 329 330 330 331 331 331 329 328 328 328 328 329 328 328 327 327 326 325 324 322 320 319 318 316 315 314 314 312 310 308 308 307 305 305 304 306 312 315 316 316 316 316 316 316 316 316 315 315 315 315 315 315 317 319 319 320 318 317 316 317 319 318 316 316 316 312 309 307 307 307 307 307 306 306
328 329 329 328 328 329 330 331 331 331 331 330 330 330 330 331 331 331 330 329 329 329 329 329 328 328 328 328 327 326 325 323 320 319 318 317 316 315 314 313 311 310 310 308 306 305 306 310 314 316 316 316 316 317 316 316 316 316 316 316 316 316 315 316 318 318 319 318 317 316 317 318 318 317 316 316 313 309 307 307 307 307 308 308 309
328 328 328 328 328 329 330 330 330 331 331 331 330 330 330 331 331 331 332 331 331 331 330 330 329 329 329 329 329 328 327 326 324 322 320 318 318 317 316 315 314 313 313 311 309 308 306 308 311 314 316 316 316 317 316 316 316 316 316 316 316 316 316 316 317 318 318 317 316 315 315 317 318 317 317 316 313 309 308 307 307 308 309 309 309
326 327 327 328 328 329 330 330 330 330 331 331 331 331 330 330 331 331 331 332 332 332 332 331 331 330 330 330 329 329 328 328 327 325 323 321 319 318 318 317 316 316 316 315 313 311 309 309 310 312 314 315 316 316 316 316 317 317 317 317 317 317 317 317 317 317 317 316 315 314 315 316 316 317 316 316 313 310 308 308 307 308 308 309 309
322 323 324 326 327 327 328 329 329 329 329 330 330 330 331 330 330 331 331 331 332 332 333 332 332 332 331 331 330 330 330 329 329 327 326 324 321 320 319 319 318 317 317 317 316 314 312 311 311 311 312 314 315 316 316 317 317 317 317 317 317 317 317 317 317 317 316 316 315 315 315 315 315 315 315 315 314 312 310 308 308 308 308 309 309
318 319 321 323 324 325 326 326 327 327 328 328 329 329 329 330 329 329 329 330 331 332 332 332 333 333 332 332 331 331 331 330 330 329 328 327 325 322 320 320 320 319 318 318 318 317 316 315 313 312 312 313 314 315 316 316 317 318 318 318 317 317 317 317 317 317 316 315 315 315 315 314 314 314 314 315 315 313 311 310 310 310 310 310 310
317 317 319 320 321 322 323 323 324 325 326 327 327 327 327 328 328 328 328 329 329 331 332 332 333 333 333 333 332 332 332 331 331 330 329 328 327 325 323 321 320 320 320 319 319 318 318 317 316 315 314 314 314 314 315 315 316 317 318 318 317 317 317 317 317 317 316 316 316 316 315 314 314 314 315 315 314 313 312 312 312 311 311 311 310
316 317 317 318 319 320 321 321 322 322 324 325 325 325 325 326 327 327 327 327 328 330 331 332 333 333 333 333 333 332 332 332 332 331 331 330 329 328 326 323 321 321 320 320 320 319 319 319 318 317 316 315 314 314 314 315 315 316 317 318 318 317 317 317 318 317 316 317 317 316 315 315 315 315 315 315 314 313 313 313 312 311 310 311 311
316 316 316 317 317 318 319 320 321 321 322 322 323 325 324 324 326 327 327 327 328 329 329 331 332 332 333 333 333 332 332 332 332 332 331 331 330 329 328 326 323 322 321 321 321 320 320 319 319 319 318 318 317 315 315 314 315 315 316 317 318 317 317 317 318 317 317 317 317 317 316 316 316 317 317 315 314 314 313 313 311 309 308 310 310
315 316 316 317 317 317 318 319 320 320 320 320 321 322 323 323 324 326 327 328 328 328 329 329 331 332 333 332 332 332 331 331 331 331 330 330 329 329 329 327 326 324 323 322 322 322 321 321 320 319 319 319 318 317 316 315 315 315 316 317 317 318 317 317 317 317 317 318 317 317 317 316 316 317 317 316 314 314 313 312 311 309 308 308 309
316 316 317 316 317 317 317 318 318 318 318 319 320 320 321 321 321 323 325 327 328 328 328 328 330 331 332 332 332 331 331 330 330 330 330 329 328 328 328 328 328 327 326 324 324 324 323 323 322 321 320 320 319 319 318 317 315 315 315 315 316 317 318 317 317 317 316 317 317 317 317 317 316 316 317 316 315 314 313 312 311 310 310 309 309
316 316 316 316 317 317 317 317 317 318 318 318 318 318 319 319 319 320 321 323 325 326 327 327 328 329 331 331 331 332 331 330 330 330 329 329 329 327 327 327 327 327 327 326 326 325 325 325 324 323 322 322 321 320 319 318 317 315 314 314 315 316 317 317 317 317 316 316 316 316 317 316 316 316 316 316 315 314 313 313 312 310 310 309 308
315 315 315 316 316 316 317 317 317 317 317 317 317 318 318 318 318 319 319 320 321 323 324 324 325 326 328 329 330 331 331 331 330 330 329 329 329 327 327 327 327 327 327 326 326 326 326 326 325 325 325 324 323 322 321 320 318 316 314 314 314 315 316 317 318 318 317 317 317 316 317 316 316 316 316 315 315 315 314 314 312 311 310 309 307
315 315 315 315 316 316 315 316 316 316 316 316 317 317 317 317 318 318 318 319 319 319 320 321 321 321 323 325 327 328 328 329 329 328 329 328 328 328 327 327 327 327 327 327 327 326 325 325 324 325 325 324 324 323 323 322 321 319 317 315 314 314 314 316 317 318 318 318 318 317 317 317 316 317 316 316 316 315 315 315 314 312 311 310 308
315 315 315 315 315 315 315 315 315 315 315 316 316 316 317 317 318 318 319 319 319 319 320 320 319 319 320 320 323 326 327 328 329 329 328 327 327 327 326 326 327 327 327 327 326 326 326 326 325 324 323 322 323 323 323 323 322 321 320 319 317 314 313 314 315 316 317 318 318 318 317 317 317 316 316 316 316 316 315 315 315 314 313 312 310
316 315 315 315 315 315 315 315 315 315 315 315 315 315 316 316 317 318 318 318 318 318 319 319 320 320 318 318 322 325 325 326 329 329 328 328 328 328 326 326 326 326 326 326 326 326 326 325 325 324 323 323 323 324 323 323 323 322 322 322 320 318 316 316 315 314 316 317 318 318 317 317 317 317 316 316 316 316 316 316 315 315 314 313 312
315 315 315 315 315 315 315 315 315 315 315 315 315 315 315 315 315 316 316 316 316 316 317 318 319 320 319 321 325 327 325 325 326 328 329 330 332 332 330 328 327 326 327 328 327 326 325 323 323 324 324 324 324 324 323 323 323 323 322 322 321 320 320 320 318 317 317 317 317 318 318 318 317 317 317 316 316 316 316 315 315 315 314 314 313
316 315 316 316 315 315 315 316 315 315 315 315 315 315 315 315 315 315 315 315 315 316 316 316 316 318 320 323 327 328 328 328 330 332 329 326 329 331 330 330 329 325 326 327 326 325 326 326 326 326 325 325 325 325 324 323 324 323 322 322 321 320 320 321 321 320 320 319 318 318 318 318 318 318 317 317 316 316 316 315 315 315 314 314 313
316 315 316 316 316 316 316 316 316 315 316 315 315 315 315 315 315 315 316 316 316 316 317 317 318 319 319 322 323 324 325 326 327 328 326 324 326 328 328 328 326 325 326 327 327 326 325 325 325 325 326 326 326 325 324 323 323 324 323 321 321 320 320 320 321 321 321 321 320 319 319 319 319 318 317 317 317 316 316 315 315 315 315 314 313
315 314 315 315 316 316 316 316 316 316 316 316 315 316 316 316 316 316 317 317 317 317 318 319 320 321 322 323 324 323 325 325 323 322 323 327 330 331 332 328 324 327 330 329 328 327 324 323 324 324 324 325 325 325 324 323 323 324 322 320 320 320 320 321 321 320 320 320 320 320 319 319 320 319 317 317 317 317 316 316 315 315 314 314 314
313 314 314 315 316 316 316 316 316 316 316 316 316 316 316 316 316 317 317 318 319 319 320 321 321 321 323 324 324 325 327 328 327 325 324 326 329 331 332 328 325 326 328 327 324 324 324 324 325 326 324 324 325 325 325 324 323 323 321 319 319 317 318 321 322 321 320 320 321 321 320 320 320 319 318 318 318 317 316 316 315 315 314 314 314
313 314 314 315 315 315 316 316 316 316 316 316 316 315 316 316 316 317 318 318 319 319 319 320 319 319 320 320 321 323 326 327 328 329 328 326 325 326 326 327 329 328 329 330 325 323 326 326 324 323 323 323 323 324 324 324 323 323 322 321 320 317 318 321 321 321 322 322 321 321 320 320 320 319 319 319 318 318 317 316 316 315 315 314 314
314 314 314 314 315 315 315 316 316 316 316 316 316 316 315 316 316 317 317 318 318 318 318 318 319 319 319 320 321 322 323 324 325 327 328 327 325 325 327 329 331 331 330 329 324 323 327 327 323 321 322 324 324 323 323 323 323 323 323 323 322 321 321 321 319 320 322 322 321 320 320 319 319 320 320 319 319 318 317 316 316 316 315 315 314
314 314 314 314 314 315 315 315 316 315 316 316 316 316 315 316 316 317 317 317 318 318 318 319 320 320 321 321 322 322 323 324 324 325 325 325 324 325 328 329 328 327 328 326 324 326 328 325 324 323 323 324 325 324 323 322 322 323 323 323 324 323 323 322 320 319 319 320 320 320 320 319 319 320 320 320 320 319 318 317 317 317 316 315 314
315 315 315 315 314 314 314 315 315 315 315 316 316 316 316 316 316 316 317 317 318 318 319 320 321 321 321 320 320 320 321 322 323 324 324 324 325 325 326 325 325 327 329 329 328 329 329 327 328 328 324 321 323 323 323 323 321 320 321 322 323 323 323 322 321 319 317 317 318 319 320 320 319 319 319 319 319 319 318 318 317 317 317 316 315
316 316 315 316 315 315 315 315 315 315 315 316 315 316 316 316 316 316 316 317 317 318 319 319 319 319 318 317 318 318 319 321 321 322 323 324 324 324 325 325 325 326 326 325 324 324 326 327 328 327 323 322 323 324 324 322 319 318 320 322 322 322 321 320 320 319 316 315 316 317 318 319 319 319 319 319 318 318 318 318 318 317 316 316 315
316 316 316 316 316 316 316 316 316 316 316 316 316 316 316 316 316 316 316 316 316 317 317 317 317 317 316 316 316 317 317 318 319 320 320 322 322 323 323 323 323 323 322 322 323 324 325 326 326 326 326 327 327 325 321 319 319 320 321 321 322 322 320 319 320 320 318 316 316 317 317 318 318 319 319 318 318 318 318 318 318 317 316 315 315
316 316 316 316 316 316 316 316 316 316 316 316 316 316 316 316 316 316 316 316 316 316 315 316 315 315 315 315 315 315 316 316 316 317 317 318 319 320 321 321 322 324 326 327 328 328 328 328 328 328 328 328 324 320 319 321 323 323 323 323 322 322 321 320 321 320 319 318 318 317 317 317 318 318 318 318 318 317 317 317 317 317 316 316 315
Wind_Speed
19 18 17 16 14 11 9 8 9 10 10 10 9 9 10 10 9 9 8 7 8 8 9 9 8 9 10 8 8 8 8 8 10 10 10 10 9 8 8 8 6 5 6 7 10 12 13 13 13 13 14 16 15 14 13 12 12 11 11 11 11 13 12 12 11 11 11 12 12 13 13 12 12 12 11 10 9 8 8 8 10 13 14 14 13
20 19 16 15 13 11 9 8 8 10 10 9 10 9 10 10 9 9 8 8 9 9 9 9 10 12 12 10 7 7 7 8 9 9 9 10 9 7 7 7 5 4 5 7 9 11 13 13 13 14 14 15 16 17 16 15 14 13 13 12 12 12 11 10 9 8 10 11 13 13 13 11 10 9 10 9 10 11 12 13 13 15 17 15 14
19 19 17 16 15 13 10 7 7 9 10 9 11 11 10 10 9 9 9 9 10 10 11 12 13 14 14 12 9 8 8 8 7 8 8 8 7 6 5 4 3 3 4 6 9 11 13 13 13 13 14 15 15 16 16 15 14 14 14 13 12 10 9 9 8 8 10 12 13 14 15 14 14 14 15 14 13 15 16 17 18 19 20 19 18
18 18 17 16 15 14 12 9 7 10 9 9 12 12 11 10 8 9 9 9 11 11 11 13 13 13 14 13 11 8 7 7 7 7 8 8 7 6 4 3 3 4 6 9 10 12 13 13 13 13 13 14 15 15 15 15 14 14 14 13 12 10 9 8 8 9 11 12 11 14 17 19 19 17 17 16 15 17 18 19 20 20 19 19 18
19 18 17 16 15 14 12 10 9 9 8 11 13 13 11 10 8 8 9 9 10 11 11 12 12 12 12 12 10 8 6 7 8 7 8 7 6 6 5 5 5 6 8 11 11 12 12 13 13 12 13 13 13 14 14 14 15 14 13 12 12 11 10 9 9 10 12 14 15 17 21 21 20 17 15 16 16 18 18 18 20 19 19 18 18
19 18 17 16 15 14 12 10 9 8 9 12 13 13 12 10 9 9 10 10 10 11 11 12 14 13 12 12 11 9 7 7 9 8 8 7 6 6 5 5 5 6 9 11 11 11 12 12 12 12 12 12 12 12 13 14 14 13 13 12 12 11 11 11 12 13 16 18 20 21 22 21 20 17 16 16 16 17 17 17 18 17 16 15 16
18 18 17 15 15 14 12 10 9 9 10 13 13 12 12 10 9 9 10 10 10 11 11 13 14 14 12 11 11 10 8 8 9 9 8 7 6 5 5 5 5 7 10 12 11 11 12 12 12 12 12 11 11 11 12 13 13 13 12 12 12 11 11 13 16 17 18 18 19 20 20 20 19 17 15 15 15 16 16 15 14 14 13 12 12
17 16 16 15 14 13 11 10 9 9 10 12 12 12 12 11 10 9 10 11 11 11 11 12 14 14 13 11 9 8 7 7 8 9 8 7 5 4 4 4 5 8 11 12 11 10 11 12 11 11 11 11 10 10 11 12 12 12 13 13 12 12 13 16 17 18 18 18 18 19 18 18 18 16 14 15 16 15 14 12 11 11 11 12 10
18 16 16 15 14 13 12 11 10 9 10 11 11 11 11 12 11 10 9 10 11 10 10 12 13 14 13 10 8 7 7 7 8 9 8 7 6 5 5 5 7 9 11 12 11 10 11 11 11 10 10 11 10 10 11 11 12 12 13 13 13 13 14 15 16 16 16 17 18 17 17 16 16 15 13 13 13 12 11 9 9 9 9 9 9
18 17 17 15 14 14 12 11 10 9 9 10 11 11 11 11 11 11 10 10 10 10 10 11 12 12 11 9 7 8 8 7 8 8 9 8 8 7 7 6 7 10 11 12 11 11 11 10 10 10 11 11 10 11 11 11 11 12 12 13 13 13 13 13 13 14 15 16 16 15 15 13 13 12 9 9 8 8 8 7 6 6 6 5 6
18 18 18 16 15 14 12 12 10 9 8 9 9 10 11 11 11 11 10 10 10 10 9 10 10 10 9 7 7 8 8 7 8 9 9 9 9 9 8 7 8 10 12 12 11 11 11 9 9 10 11 11 11 10 10 11 11 11 12 12 12 12 11 11 10 11 13 13 13 13 13 12 11 9 6 5 4 5 5 5 4 5 5 4 5
17 17 18 16 15 14 13 11 10 9 8 8 8 9 10 10 10 10 10 10 10 10 9 10 10 9 8 8 7 9 9 8 8 10 9 9 9 9 8 7 8 10 11 11 10 11 9 8 9 10 11 10 10 10 10 10 10 10 11 11 11 11 10 9 9 11 12 11 12 13 13 13 12 10 7 6 5 5 5 5 5 5 5 5 6
18 17 17 16 15 14 13 12 10 9 8 7 7 8 9 10 11 10 9 9 9 10 10 10 10 9 9 8 8 8 9 8 7 8 9 8 8 8 6 6 7 8 10 9 8 9 8 8 10 10 10 10 10 9 9 9 9 9 9 9 9 9 9 9 9 10 11 11 12 12 13 13 12 10 7 7 7 6 6 6 5 4 5 5 6
18 18 17 16 15 15 13 12 11 10 9 8 7 8 8 9 10 11 10 10 9 9 9 9 9 9 9 8 8 8 9 8 5 6 8 8 8 7 5 5 6 7 8 8 7 7 8 9 10 9 9 10 9 8 8 7 8 8 7 7 7 8 9 8 9 9 10 11 11 11 11 11 9 6 4 4 5 5 5 5 4 4 5 5 5
17 17 17 16 15 14 13 12 11 10 9 8 7 7 6 8 9 10 11 10 10 9 8 8 9 9 9 9 9 8 8 7 5 5 6 8 8 6 4 4 5 5 6 7 6 7 9 10 10 9 10 10 9 8 7 6 6 6 6 6 7 8 8 7 8 9 9 9 9 9 9 8 6 3 2 3 4 4 4 4 3 4 5 4 4
16 16 17 16 14 14 13 12 11 9 9 8 7 6 6 6 7 8 10 10 10 9 8 8 8 8 8 9 9 8 7 6 5 6 5 7 8 5 3 3 4 5 6 6 6 7 8 10 10 10 10 9 8 8 6 6 5 5 5 5 6 7 6 6 7 8 8 7 6 6 5 5 4 2 2 3 3 3 4 4 3 4 4 4 4
16 15 16 15 14 13 12 12 11 10 9 8 8 7 6 5 5 6 8 9 9 9 9 9 9 8 8 8 8 8 7 7 6 7 6 5 8 5 2 3 4 3 4 6 7 7 8 9 10 10 10 9 7 7 6 5 4 3 3 4 5 5 5 5 5 5 5 4 4 3 2 1 2 2 1 1 2 2 3 3 3 2 2 3 3
17 16 15 14 13 12 12 11 11 10 9 9 9 8 6 5 4 4 5 6 7 8 8 9 9 9 8 8 8 7 7 7 7 8 7 5 6 5 1 3 4 4 5 6 6 8 9 9 10 9 9 8 7 6 5 4 3 2 2 3 4 4 4 4 3 3 3 3 2 1 1 2 4 3 2 3 3 2 2 2 2 1 2 2 2
17 16 15 13 13 12 12 11 11 11 10 9 9 9 8 6 4 3 3 4 5 6 6 7 8 8 8 8 7 7 7 7 8 8 7 5 3 3 1 3 4 5 6 6 6 8 8 9 9 8 8 7 6 6 4 3 2 2 2 3 3 3 3 3 2 2 1 1 1 1 2 2 2 2 2 3 4 3 1 0 1 2 3 3 3
18 17 16 14 14 13 13 12 12 12 11 10 9 9 9 7 6 4 4 3 3 3 4 5 6 7 8 8 7 7 7 7 7 8 7 6 3 1 2 4 4 5 5 5 5 6 7 8 8 7 7 6 6 5 4 3 2 1 1 2 2 2 3 3 2 2 1 0 0 2 3 2 1 3 3 3 3 1 1 3 4 4 4 3 2
20 19 18 16 15 14 14 13 13 12 12 11 10 10 9 9 8 7 5 4 3 2 2 3 4 5 6 6 6 7 7 7 7 6 6 5 3 3 3 4 4 4 4 4 3 5 6 6 6 6 6 6 6 5 5 4 2 1 1 1 1 3 4 4 3 3 1 1 2 3 2 1 2 4 3 2 1 1 3 5 5 5 3 2 0
23 21 20 18 18 16 15 14 13 13 12 12 11 11 10 10 9 8 7 6 5 3 2 1 1 2 3 4 5 5 5 6 6 6 5 4 2 3 4 3 3 3 3 3 3 4 5 5 5 5 5 5 5 5 5 4 3 2 1 1 2 4 5 4 3 3 3 1 2 2 1 1 2 3 3 1 2 5 6 6 6 4 2 1 0
24 23 22 20 19 18 17 15 14 13 13 13 12 12 11 11 10 10 9 7 6 5 4 3 2 1 1 2 2 3 3 4 5 5 4 3 2 2 3 2 2 2 3 3 2 3 4 4 4 4 4 4 4 4 4 4 4 3 2 2 2 3 2 2 3 3 3 2 2 1 0 3 3 3 2 0 5 7 7 6 5 3 1 0 1
24 23 22 21 20 19 18 17 16 15 14 14 13 13 13 12 11 11 10 9 8 7 6 6 5 3 2 1 1 2 2 2 3 3 3 2 1 2 2 2 2 2 2 2 2 2 3 3 3 2 2 3 3 3 4 4 4 3 3 3 4 4 3 1 1 3 3 3 3 3 3 5 5 4 0 1 7 9 7 6 4 3 1 1 2
23 23 22 22 21 20 19 18 17 16 16 16 15 14 13 13 13 12 11 11 10 9 8 7 7 6 5 4 3 2 2 2 2 2 2 2 2 2 2 2 1 2 2 2 2 2 2 1 1 1 1 1 1 2 3 3 4 4 4 3 4 4 4 2 2 3 4 5 6 5 6 7 7 6 2 2 6 10 9 5 3 2 2 3 4
23 23 22 22 21 20 19 19 18 18 17 17 16 15 15 14 14 13 12 12 11 11 10 9 8 8 7 7 6 5 4 3 3 2 2 2 2 3 2 2 1 1 1 1 1 0 1 1 1 1 1 1 1 1 2 3 4 4 4 4 4 4 4 3 3 4 6 7 7 7 7 9 9 7 4 5 9 11 8 4 3 1 2 3 3
23 22 21 21 21 21 20 19 19 18 18 18 17 17 17 16 15 15 14 13 12 12 11 10 10 9 9 9 8 7 6 5 4 4 4 3 3 4 3 3 2 1 1 1 1 1 2 2 3 3 3 3 3 3 3 3 3 4 4 4 4 5 5 5 5 6 7 8 9 8 7 9 10 9 8 9 9 8 6 4 3 1 2 3 3
21 21 20 21 21 20 20 20 19 19 18 18 18 18 18 17 17 16 15 14 14 13 13 12 12 11 11 11 10 9 8 8 7 6 5 5 5 5 5 4 3 3 2 2 2 2 3 3 4 4 5 5 5 5 5 4 5 5 5 5 5 5 6 6 7 7 9 10 10 9 8 9 10 9 10 7 5 5 5 5 4 1 1 3 4
20 19 19 20 20 20 20 20 20 19 19 18 18 18 18 18 17 17 16 15 15 15 14 14 14 13 13 12 12 11 10 10 9 9 8 7 7 7 6 6 5 4 4 4 4 4 4 4 5 5 6 6 6 6 6 7 7 7 6 7 7 6 7 8 8 9 10 11 10 10 9 10 11 10 10 6 6 5 4 3 2 1 2 4 5
18 18 19 19 19 19 20 19 19 19 19 19 19 18 18 18 18 18 17 16 16 16 16 16 16 15 15 14 13 13 13 12 11 11 10 9 9 9 8 8 8 7 6 6 6 6 6 6 6 6 6 7 8 8 8 9 9 9 8 8 9 8 8 9 9 10 11 12 11 11 12 12 12 11 11 8 8 8 6 5 4 5 5 5 6
17 18 18 18 18 19 19 19 19 19 19 20 20 20 19 19 19 19 18 17 16 17 17 17 17 17 16 15 15 14 14 14 14 13 13 12 11 11 11 10 10 9 9 8 8 8 8 8 8 8 8 8 9 10 10 11 11 11 11 10 10 10 10 10 11 11 11 12 12 13 14 14 13 13 12 9 10 10 7 7 6 6 6 6 7
16 17 17 17 17 18 18 18 19 19 19 20 20 21 21 20 19 20 20 19 18 18 18 18 19 18 18 17 17 16 16 16 16 16 15 14 14 13 12 12 12 11 11 11 10 10 10 10 10 10 10 11 11 12 12 12 13 13 13 13 12 12 12 11 12 13 12 13 14 15 15 15 14 15 15 12 11 10 9 9 8 7 7 7 7
15 15 16 17 18 18 18 18 19 19 19 20 20 21 21 21 20 21 21 21 20 20 19 19 19 19 20 19 19 19 18 18 18 18 18 17 16 15 14 14 14 13 13 13 12 12 12 12 12 12 12 13 13 13 14 14 15 15 15 15 14 14 14 14 13 13 13 14 16 17 17 17 16 17 17 15 14 13 13 13 11 10 9 8 7
16 17 17 17 17 18 18 18 19 20 20 20 20 21 21 22 21 21 21 22 22 22 21 21 20 20 21 21 22 21 20 20 19 19 19 19 18 17 16 16 15 15 15 15 14 13 14 14 13 14 14 15 15 15 16 16 16 17 17 16 16 16 16 16 15 15 15 15 17 19 19 19 19 19 19 18 18 17 18 18 16 13 11 9 8
19 19 18 17 17 18 18 19 19 20 20 20 21 21 21 21 21 21 21 22 23 23 23 23 22 21 22 23 23 23 22 21 20 20 21 21 21 20 18 17 17 18 17 17 16 16 16 15 15 15 16 16 17 17 17 18 18 19 18 18 18 18 18 18 18 17 17 17 18 19 20 21 21 21 20 20 21 20 21 20 19 16 13 12 12
21 20 19 19 19 19 19 19 19 20 20 20 21 21 21 22 22 22 22 22 23 23 24 24 24 23 23 23 23 23 23 22 21 21 22 23 21 20 19 18 19 19 20 20 19 18 18 17 17 17 17 18 18 18 18 19 20 20 20 20 21 21 21 21 20 21 20 19 20 20 21 22 23 23 22 22 22 23 23 22 21 20 18 16 16
22 22 21 21 21 20 21 20 20 20 20 21 21 21 22 22 22 23 23 23 23 23 23 24 24 24 23 23 22 22 22 22 22 21 22 24 23 21 20 20 20 20 21 21 21 21 19 19 19 18 18 19 20 19 20 20 20 21 21 21 22 23 23 23 23 23 22 22 22 22 22 23 24 25 25 25 25 25 25 25 24 23 23 20 19
22 22 23 23 22 22 22 22 21 21 21 21 22 22 22 23 24 24 24 25 25 24 24 24 24 24 24 23 22 22 21 22 23 22 22 22 22 23 22 20 21 21 22 22 22 22 21 22 21 20 20 20 20 21 21 22 23 23 23 23 24 25 25 25 26 26 25 25 25 25 24 25 26 27 27 27 28 27 27 27 27 26 26 24 23
20 22 22 23 23 23 23 23 23 23 22 22 23 23 23 24 25 25 25 26 26 25 25 25 25 25 25 24 23 24 24 22 23 24 26 25 24 23 23 22 21 23 24 22 22 23 23 24 23 22 22 22 22 22 23 23 24 25 25 25 26 26 26 27 29 28 28 28 28 27 27 27 28 28 29 29 30 30 29 29 29 29 29 26 26
20 21 22 23 23 23 23 23 23 23 23 24 24 25 25 25 25 25 26 26 26 25 24 24 24 25 25 25 25 26 26 24 23 23 25 30 30 27 27 25 22 23 26 27 25 25 25 24 23 23 24 24 23 23 24 25 24 24 24 25 26 27 27 29 31 31 30 31 31 31 30 30 30 30 30 31 31 32 31 31 31 31 31 29 28
20 21 22 22 22 22 23 23 22 23 24 25 25 25 25 25 25 25 24 24 25 25 25 24 23 22 22 24 26 28 28 27 26 25 24 26 28 29 29 26 22 21 26 29 26 26 29 28 26 27 27 26 26 26 26 27 26 25 24 25 27 28 27 29 31 31 32 33 33 33 33 33 32 32 32 32 32 33 33 33 34 34 33 32 32
22 23 23 22 22 22 23 22 22 22 23 23 23 24 23 23 23 23 23 23 24 24 25 24 23 22 21 21 23 25 26 26 25 26 25 22 22 26 27 26 27 26 26 27 26 25 27 29 29 30 30 30 31 32 30 29 29 28 27 27 28 29 28 29 31 31 31 33 34 35 35 35 35 34 34 34 34 35 35 35 36 36 36 36 36
26 25 24 23 23 22 22 21 21 22 21 22 22 21 21 21 22 22 23 23 24 24 24 24 24 24 23 23 23 23 24 25 25 24 24 24 25 28 28 25 28 30 27 26 28 27 27 29 30 28 30 33 36 37 34 31 31 30 29 29 31 30 29 31 33 32 31 33 34 35 35 35 35 36 36 36 37 37 36 36 37 38 39 39 39
25 23 23 23 23 22 21 21 21 21 21 21 21 21 21 21 22 22 22 23 24 24 25 26 25 25 25 25 24 23 25 27 29 28 26 25 27 30 32 28 27 28 28 27 28 29 29 29 30 31 32 36 39 38 35 33 33 33 32 30 28 27 29 34 35 32 31 32 34 34 34 34 35 36 37 38 39 39 38 38 39 39 40 41 41
22 22 22 23 22 22 22 21 21 21 21 22 21 22 22 21 22 22 23 24 24 25 26 26 25 25 25 24 23 23 23 25 28 30 30 28 27 28 30 30 29 30 30 31 29 29 30 27 26 31 33 34 33 31 32 34 36 37 36 34 28 25 28 33 33 32 33 33 32 30 30 32 33 33 35 38 39 40 40 41 41 41 42 42 43
16 19 21 23 23 23 23 22 21 21 21 22 21 22 21 21 21 22 22 22 23 23 23 22 22 22 22 22 22 22 22 22 23 26 29 30 29 28 28 29 32 33 33 33 30 29 31 29 26 28 30 31 30 28 32 35 37 40 42 43 37 34 35 34 31 33 36 35 32 29 28 30 32 32 34 36 37 39 41 42 42 41 42 44 45
11 13 16 18 20 21 22 21 21 20 19 20 20 20 20 20 20 20 20 21 22 21 20 20 19 19 20 20 21 21 21 22 22 23 25 27 26 27 30 32 33 34 33 34 34 33 31 31 33 30 28 31 32 33 35 37 39 42 45 46 43 42 43 42 40 39 37 36 35 34 32 32 34 35 36 36 36 38 40 40 41 41 41 44 46
6 7 9 10 13 15 17 17 17 16 16 16 16 16 17 17 18 18 19 20 20 19 18 19 19 18 19 19 19 20 21 22 22 23 23 25 25 27 30 32 32 34 36 38 39 37 35 38 39 33 29 30 33 36 38 39 41 42 42 44 44 43 46 47 46 44 40 38 39 40 39 40 40 38 38 37 36 36 38 38 39 41 41 43 46
3 3 4 4 5 6 7 8 9 10 10 11 11 13 13 14 15 16 17 17 17 17 17 18 18 19 20 20 20 21 21 22 22 22 23 24 25 26 28 30 31 33 35 36 35 34 36 40 39 34 34 34 32 35 37 40 41 40 39 41 45 46 47 47 47 47 46 43 44 44 42 42 43 40 40 41 38 36 39 40 39 41 43 44 45
8 7 6 6 5 5 4 3 3 4 5 6 8 9 11 12 14 14 16 15 15 16 17 18 18 19 20 20 21 21 21 22 22 22 23 23 24 25 26 27 27 28 30 31 32 31 33 36 37 39 39 36 33 35 37 38 39 40 41 41 46 47 46 47 47 48 47 45 48 48 45 45 45 44 43 44 42 40 41 42 41 41 44 44 44
15 14 13 12 11 9 8 7 5 4 2 1 2 4 6 7 9 10 12 13 13 14 15 17 17 18 20 20 21 21 22 22 23 23 23 23 23 24 25 25 24 26 31 34 34 34 34 34 36 38 38 36 37 38 37 38 40 44 46 46 49 50 49 49 48 48 47 46 48 50 50 48 47 47 47 46 46 44 43 42 43 43 41 42 42
Wind_Direction
157 154 152 146 134 127 117 105 81 64 57 53 55 64 80 89 99 107 117 136 147 145 145 147 136 128 133 123 111 111 105 105 112 116 118 118 114 117 117 109 98 76 62 55 61 76 88 93 92 90 90 94 103 109 112 113 110 113 123 139 149 143 140 138 134 129 121 114 111 110 111 111 110 106 99 91 76 64 62 71 86 91 88 91 95
155 156 156 150 140 131 115 101 83 66 58 54 62 69 82 91 93 96 99 113 130 127 118 125 122 120 128 128 122 126 126 121 120 125 124 126 130 131 124 111 97 64 48 51 69 85 89 93 93 92 92 94 98 102 105 106 106 107 114 129 145 146 144 142 140 136 131 127 119 113 110 106 103 93 78 68 62 64 68 72 77 80 77 76 81
153 153 153 149 142 135 124 114 93 73 62 56 63 69 76 83 88 93 90 97 110 111 108 110 115 121 128 129 126 135 142 143 140 142 141 140 141 144 140 111 83 54 60 75 86 93 91 91 92 92 93 97 99 100 103 104 104 104 106 116 130 136 135 133 135 132 131 131 123 112 103 90 80 73 66 65 67 70 68 68 70 73 73 68 69
153 149 150 148 142 137 135 134 103 80 70 61 64 69 76 82 86 95 94 97 106 106 111 112 117 126 132 135 132 134 140 149 152 149 147 142 138 141 138 112 79 66 84 94 95 95 93 91 91 90 92 96 99 99 101 103 102 99 100 106 115 121 121 121 122 122 123 122 114 103 97 87 79 76 74 76 75 74 71 70 72 75 78 76 73
155 150 151 148 142 140 138 130 104 90 78 67 65 67 75 83 83 92 96 97 106 107 110 110 116 126 133 137 130 127 130 151 158 145 136 130 128 126 119 108 82 74 91 96 96 96 93 91 90 88 89 92 95 96 97 98 96 94 96 100 104 107 108 108 105 108 109 104 99 96 97 93 87 83 79 81 81 80 79 80 81 82 86 87 84
156 154 154 148 143 143 139 128 114 102 80 68 65 65 71 79 83 87 95 96 104 104 104 105 107 114 121 123 114 111 115 139 151 140 129 123 122 118 111 99 82 82 94 95 95 97 93 91 89 84 84 86 88 91 92 92 92 92 92 94 96 99 98 97 96 100 101 100 99 97 97 95 91 87 82 81 83 85 86 85 86 88 91 94 92
159 156 155 151 146 146 143 135 123 103 79 71 67 68 69 75 84 86 95 96 99 101 100 102 103 102 102 106 107 110 113 125 140 141 134 129 123 115 111 99 89 91 95 95 94 97 94 89 85 82 81 81 82 86 91 92 93 91 91 91 94 95 94 96 99 102 104 105 103 100 98 96 94 92 90 89 90 92 92 91 94 97 97 98 96
162 159 157 152 151 152 148 140 124 105 85 75 69 69 70 72 80 83 91 94 96 101 102 103 107 107 103 103 105 110 116 124 139 145 141 140 137 129 120 111 104 98 99 96 94 96 93 89 84 83 81 81 82 85 92 94 94 92 92 93 94 95 96 102 106 107 108 108 106 105 102 99 100 98 97 101 101 100 101 100 100 103 102 94 88
167 163 160 155 155 156 152 142 124 110 92 79 73 70 73 72 74 80 86 91 95 97 100 102 108 116 115 110 103 103 112 124 134 141 148 154 156 149 128 121 113 100 98 97 98 94 88 89 87 84 78 75 79 85 93 95 94 94 93 93 95 97 100 108 111 109 109 108 106 106 104 103 105 104 106 109 106 101 103 103 103 107 103 85 70
170 166 163 161 159 159 153 141 126 115 99 85 77 72 73 73 74 79 84 90 94 93 98 102 105 112 115 109 103 100 104 114 122 130 145 152 151 141 126 122 110 100 99 99 99 92 88 90 85 83 75 71 77 86 94 96 97 96 94 95 97 98 103 108 109 108 107 107 106 104 103 105 105 105 113 117 110 102 102 104 109 115 108 76 61
169 168 166 164 162 160 153 138 129 123 110 93 82 78 75 75 76 77 81 85 91 92 95 102 101 101 104 106 105 104 103 108 117 126 136 140 137 128 121 117 106 102 103 101 99 95 95 91 82 82 75 72 78 87 95 97 99 98 98 98 99 100 101 102 102 103 104 105 104 104 105 107 106 107 123 133 126 114 109 111 116 115 109 88 76
168 168 167 166 163 159 152 141 137 133 121 108 94 87 80 76 76 76 80 83 89 93 95 99 99 97 98 100 101 102 104 107 115 125 132 134 131 124 121 115 106 107 108 107 105 103 102 94 83 78 71 72 78 87 95 99 102 100 102 102 101 101 100 100 100 102 105 106 105 106 109 109 104 107 126 139 138 130 129 131 132 120 108 102 95
168 168 169 167 163 160 155 150 146 142 135 127 110 97 87 78 74 73 76 79 84 89 91 94 95 96 93 92 95 95 100 108 114 126 136 138 132 128 132 122 108 110 112 109 107 103 102 94 83 73 68 72 80 90 95 99 102 102 102 101 101 101 102 104 105 108 111 111 111 114 116 111 103 105 124 134 127 123 134 142 148 138 121 113 98
170 170 171 170 165 163 161 158 154 149 146 141 125 109 94 82 74 70 70 73 76 79 84 88 89 89 85 85 89 90 99 109 103 118 143 149 139 140 143 120 105 105 110 110 107 101 93 84 77 72 70 72 80 90 95 98 100 101 102 100 99 99 105 108 110 114 113 113 116 121 120 111 109 116 121 125 123 123 133 142 155 142 120 106 91
176 173 173 173 169 166 165 165 162 154 153 151 139 124 105 90 79 72 69 69 72 75 78 80 83 83 81 80 83 88 94 99 82 89 137 155 148 155 153 116 109 105 108 109 102 95 88 81 77 74 72 74 79 85 91 94 97 101 103 100 98 103 110 112 113 114 112 112 117 124 122 117 130 149 116 100 111 124 140 146 149 122 111 107 96
180 180 177 176 173 171 168 166 167 161 159 160 154 141 124 103 89 80 73 70 72 75 75 73 77 80 84 86 86 89 86 83 74 66 96 152 155 164 164 118 108 106 110 111 104 100 90 82 81 78 76 77 77 81 88 93 99 103 103 104 107 116 122 121 121 120 117 117 126 131 132 137 154 160 119 101 101 127 154 156 140 115 103 94 86
178 185 183 179 176 176 174 169 170 167 165 168 167 158 146 126 103 90 80 72 72 74 74 71 71 73 78 87 90 92 88 81 78 69 72 130 158 168 165 107 93 94 106 108 109 105 91 86 85 81 78 77 78 81 87 95 106 110 109 115 125 136 140 139 135 133 131 129 132 131 133 179 232 227 171 144 151 161 166 140 122 122 82 63 54
176 184 187 185 180 180 181 177 176 174 172 175 176 172 165 155 131 108 94 80 74 73 73 69 67 66 67 75 81 86 86 82 79 75 71 96 155 177 151 78 71 67 76 89 99 99 93 93 90 83 79 76 76 77 82 94 105 117 119 128 145 159 160 156 159 159 147 140 135 107 36 299 276 256 244 222 203 189 172 110 94 22 6 19 353
179 184 188 191 188 188 188 187 187 183 180 180 182 182 179 178 169 147 123 98 83 75 70 66 62 61 59 61 66 71 75 79 79 75 72 77 135 181 76 55 52 51 57 70 88 98 101 101 95 87 82 76 73 72 76 87 98 119 132 153 174 188 186 179 193 209 184 165 149 54 4 317 270 211 187 199 194 185 185 347 346 329 343 342 336
186 187 190 195 196 197 195 195 194 192 190 186 187 190 189 191 191 187 173 149 123 92 76 68 60 59 57 55 53 56 62 70 77 76 72 65 78 100 43 47 39 39 45 56 80 99 108 106 99 93 86 77 72 72 76 83 90 118 160 185 202 217 215 209 221 249 242 207 294 359 7 18 108 129 152 173 174 191 286 320 322 324 327 326 336
193 193 194 198 201 205 203 202 201 199 198 194 193 196 198 200 203 204 200 195 183 159 114 79 63 61 55 56 51 51 55 57 64 72 74 61 43 26 36 43 33 29 31 43 77 103 113 108 100 94 87 79 75 73 74 77 76 78 190 228 236 234 234 228 237 264 252 233 306 345 15 64 126 130 137 161 159 318 325 328 331 337 335 336 4
198 197 199 201 204 207 207 207 207 206 205 203 200 200 204 207 210 213 214 215 210 214 208 182 87 70 54 55 54 56 57 56 58 63 74 63 30 20 34 42 32 25 20 35 82 113 119 109 103 96 87 83 78 72 66 64 61 55 38 316 265 251 248 244 257 274 264 265 318 340 13 128 195 176 145 132 20 349 330 332 340 346 347 345 164
203 202 203 205 206 207 209 210 211 211 211 211 209 207 209 211 216 218 221 223 223 230 230 230 225 208 51 46 41 51 53 56 59 62 75 72 43 26 35 38 29 31 28 40 85 122 124 110 106 98 87 82 76 69 59 50 44 38 24 3 337 314 289 264 277 278 266 287 309 296 139 143 205 236 155 123 344 341 329 333 341 346 348 245 182
207 207 208 210 210 210 210 211 211 213 215 217 217 215 214 216 219 222 226 228 230 233 236 240 237 240 254 282 333 6 20 34 45 52 65 64 48 37 48 43 27 42 47 59 92 122 129 115 111 103 86 74 64 56 46 36 25 19 7 355 344 343 348 325 279 272 262 262 254 233 195 177 207 263 245 270 321 327 327 333 332 342 23 131 135
210 211 213 214 215 215 214 213 213 213 216 218 221 221 221 221 223 226 228 230 233 235 238 243 244 249 255 263 277 297 325 341 353 10 28 23 8 10 38 47 37 41 44 62 88 119 138 130 123 130 91 54 40 31 28 20 6 356 344 335 328 331 344 347 301 277 262 251 247 238 219 211 236 273 247 227 308 314 313 318 308 330 88 123 126
213 213 214 216 218 218 218 218 218 218 218 220 222 225 226 226 228 230 233 234 235 238 241 244 248 252 255 261 266 275 291 303 314 317 330 336 334 342 359 18 25 27 24 31 57 144 202 226 253 267 267 286 293 328 348 357 350 338 329 321 314 312 320 319 297 280 266 261 262 255 235 227 245 258 244 271 295 300 301 305 298 311 122 137 139
216 217 216 218 220 221 223 223 224 224 223 223 224 226 229 230 232 233 236 238 240 242 245 247 249 253 256 260 262 268 276 283 292 295 302 305 307 317 326 337 335 338 331 297 269 241 251 254 268 276 272 276 275 285 300 314 319 313 312 307 303 297 296 292 283 278 269 270 274 273 253 238 249 252 262 281 284 286 296 308 310 323 132 152 153
219 220 219 221 222 224 226 227 229 229 229 229 229 231 232 234 235 236 237 239 243 246 247 250 251 253 255 258 260 263 269 274 280 284 287 287 288 293 299 306 306 305 295 286 273 258 261 264 271 274 274 276 271 277 283 290 296 295 294 290 289 283 278 276 274 274 270 273 276 279 272 258 265 270 275 273 243 268 293 306 316 339 118 154 156
220 220 221 223 225 227 229 231 233 233 234 235 237 237 237 240 241 241 241 240 243 246 248 250 251 253 254 257 260 262 266 269 274 276 277 278 276 276 278 283 287 289 285 281 276 268 265 265 269 271 274 274 272 272 272 278 283 285 287 283 281 274 268 266 265 267 267 272 271 271 274 272 276 281 287 266 210 249 272 266 276 192 177 167 167
220 222 223 224 226 229 232 234 235 237 237 239 242 244 243 244 246 248 247 245 243 245 248 250 252 252 253 256 258 260 262 264 267 270 271 272 270 268 268 269 272 275 276 276 272 269 265 262 263 265 268 267 267 268 266 271 273 277 281 280 278 272 267 262 257 260 263 266 265 264 268 275 278 278 287 269 236 254 244 216 201 183 189 180 179
221 223 225 226 227 229 233 235 237 239 240 241 244 247 247 246 249 251 251 251 247 246 247 249 252 254 255 256 257 258 260 261 263 265 266 268 269 266 263 264 267 269 271 271 269 269 265 262 262 261 262 260 259 261 262 266 267 271 274 276 277 271 269 266 260 261 259 254 257 263 268 277 279 275 280 266 248 255 227 205 206 201 206 196 190
223 224 226 228 229 231 233 235 237 240 242 244 245 248 251 250 249 251 253 254 252 251 249 248 251 254 256 256 257 257 257 259 260 262 263 263 265 265 262 259 260 263 265 268 268 268 267 264 263 262 262 261 260 259 259 262 264 267 270 272 273 271 270 267 265 267 262 251 254 264 269 275 274 271 275 264 249 246 223 215 226 237 233 213 201
231 232 233 231 232 234 235 237 239 241 243 246 247 249 252 254 253 252 254 256 256 255 253 251 251 252 255 257 257 256 255 255 256 258 259 258 258 258 259 259 259 260 260 262 264 266 268 268 267 266 265 265 265 264 262 263 264 265 268 271 272 273 272 268 266 267 264 255 257 264 267 271 270 268 271 264 253 249 248 248 251 258 247 230 217
239 239 238 236 236 238 238 240 240 243 245 247 250 251 252 255 256 256 255 257 258 258 257 254 252 250 252 254 255 256 256 256 255 254 255 257 256 253 255 258 258 260 260 261 264 267 269 270 270 269 269 268 268 268 267 267 267 266 266 268 271 272 272 272 269 266 265 259 259 262 265 269 269 268 268 263 258 253 256 260 263 263 244 232 233
242 242 243 243 242 243 242 243 243 245 247 249 251 253 255 257 259 260 259 258 259 260 261 259 255 251 249 250 252 254 255 255 257 257 256 255 254 251 251 255 259 260 259 258 259 262 266 269 272 272 272 271 271 270 270 270 270 269 268 268 269 270 269 270 270 268 266 263 262 261 262 266 267 267 266 263 261 257 257 260 264 263 247 239 242
245 246 247 248 248 248 248 248 247 248 250 252 254 256 258 260 261 263 263 263 262 262 262 263 261 257 252 250 251 254 256 254 253 255 257 259 257 252 247 250 254 257 260 260 257 256 260 265 267 271 274 274 274 274 273 273 272 271 270 269 268 269 268 268 269 268 265 265 265 261 260 262 264 265 265 263 261 260 259 260 260 258 252 251 253
248 249 250 251 251 252 253 253 253 253 254 255 256 257 259 261 263 264 266 267 266 266 266 266 266 263 260 256 253 254 257 259 258 255 254 257 261 260 254 251 251 253 257 258 258 257 257 260 263 265 270 273 275 275 275 274 275 275 272 270 269 268 268 268 268 267 265 267 266 264 262 260 261 263 264 265 262 261 261 261 260 257 256 257 260
249 250 251 252 253 254 255 256 257 257 257 257 258 259 260 261 262 263 265 266 268 268 268 268 267 267 266 264 262 261 260 263 266 267 263 259 260 264 263 258 257 259 258 258 261 260 257 257 257 259 264 268 269 271 274 275 276 276 273 271 270 268 269 269 269 266 265 268 268 266 264 261 261 261 262 264 263 263 263 262 261 260 261 260 261
247 249 251 253 254 254 255 256 256 256 257 258 258 259 259 259 259 260 261 262 264 265 264 264 266 267 268 268 268 266 264 259 258 264 268 266 262 267 272 269 264 264 265 266 264 262 262 262 260 260 262 263 264 266 272 274 273 271 270 271 272 271 271 270 270 268 267 268 267 266 264 262 261 260 260 261 261 263 263 262 261 261 263 262 262
244 247 249 250 252 252 254 254 254 255 255 256 256 256 257 257 258 258 258 260 262 264 265 263 263 264 267 270 271 271 271 270 267 265 265 263 256 259 270 269 265 267 264 263 266 268 267 267 265 262 259 257 259 263 268 270 269 267 266 267 269 269 269 269 269 269 269 268 267 266 266 264 262 261 259 258 258 260 261 261 260 260 261 262 262
243 246 248 250 251 252 252 252 252 253 253 254 255 256 257 258 259 260 261 263 265 267 269 269 269 266 264 262 263 267 269 272 273 268 265 262 255 257 264 259 256 270 268 260 266 274 268 264 265 264 260 256 256 259 262 262 262 264 264 264 266 268 267 267 268 269 270 270 268 267 267 266 265 264 261 258 257 257 258 259 259 259 259 260 262
251 252 253 252 252 252 252 251 251 252 252 254 255 257 259 261 264 266 269 270 268 268 270 273 275 275 273 266 260 261 262 264 264 260 261 264 263 263 264 261 259 268 273 263 262 270 271 268 266 267 266 263 260 258 257 256 258 262 265 266 268 269 268 267 267 268 269 269 268 267 266 267 267 266 262 260 259 257 256 257 257 257 258 260 261
255 254 253 250 250 251 252 251 250 250 252 254 256 258 261 263 265 267 269 270 270 270 271 271 272 272 274 272 270 270 270 274 276 272 268 268 272 266 259 266 270 266 266 265 263 264 270 270 263 266 272 270 266 262 259 258 260 263 262 262 265 267 268 269 270 272 271 270 270 267 267 269 269 267 264 263 262 259 257 256 256 256 258 259 260
253 251 249 248 249 250 251 250 249 249 250 252 255 257 259 261 263 264 265 266 266 267 267 267 266 266 266 267 269 269 268 272 278 282 279 272 270 264 259 268 279 274 266 265 267 264 266 267 262 263 270 273 271 268 265 262 261 262 258 256 260 261 264 270 275 279 276 272 272 270 268 269 270 268 267 267 266 262 259 257 256 257 257 258 259
250 247 245 244 246 246 247 247 248 248 249 251 253 255 256 257 259 261 261 262 263 263 263 264 266 267 270 272 275 272 266 264 265 271 276 275 270 265 265 269 275 278 271 263 269 271 264 262 266 267 267 272 275 274 271 268 266 267 262 257 255 253 262 272 276 279 280 276 272 270 270 269 269 269 271 270 267 265 262 259 257 258 258 258 257
245 243 242 242 243 243 244 245 247 248 249 250 251 254 255 256 258 260 262 265 266 267 269 273 276 277 280 281 280 279 276 272 266 264 266 271 271 269 272 272 269 272 271 263 272 279 264 258 272 275 269 270 270 271 274 275 274 271 265 261 259 259 264 270 272 275 280 278 271 269 273 275 272 270 273 273 269 267 264 261 261 261 261 259 257
236 239 240 241 241 240 241 242 245 247 248 248 248 251 253 254 257 261 264 267 269 273 279 282 283 283 281 278 275 274 275 275 275 272 269 270 270 268 267 267 266 268 268 266 275 279 267 267 277 277 275 271 263 266 274 278 276 273 269 265 264 265 265 265 267 271 275 276 274 270 270 277 277 272 273 273 271 268 265 264 263 262 263 261 258
226 231 233 237 238 237 237 238 240 242 243 244 244 247 250 254 258 262 264 267 271 277 282 282 281 280 277 273 271 270 270 271 271 271 272 272 270 266 263 264 266 267 264 264 273 275 268 271 272 269 278 277 265 268 274 276 276 276 275 268 264 267 265 262 265 267 266 269 274 272 269 273 275 273 273 271 270 272 270 267 264 261 261 261 261
163 182 193 204 210 217 221 225 229 233 237 238 240 243 247 253 256 260 264 269 275 280 281 280 279 278 277 275 272 271 270 271 271 270 269 268 267 264 262 260 260 260 258 260 268 271 268 269 267 267 282 284 275 274 274 274 275 276 276 270 265 266 263 260 262 264 263 264 269 270 268 269 271 275 279 275 273 280 280 272 266 262 260 260 262
99 104 107 111 117 125 137 157 186 209 227 233 239 246 251 257 263 268 274 279 283 283 281 281 280 280 280 278 276 276 275 273 272 271 268 266 265 263 261 259 257 258 261 264 268 270 269 268 267 270 278 281 279 278 277 277 278 276 275 272 268 267 264 263 265 266 265 265 267 268 268 268 271 279 286 281 277 282 284 276 268 266 263 261 263
87 89 89 90 91 92 95 97 101 109 125 181 236 257 267 277 282 287 289 291 290 287 287 287 288 287 285 284 282 279 277 275 273 271 269 267 265 264 264 265 264 262 262 264 267 268 267 268 269 270 273 275 276 277 276 276 275 274 274 272 271 270 269 269 272 272 270 270 270 271 272 272 275 281 285 283 280 280 283 278 271 270 269 266 265